Weather History for Nantucket, MA

Change the Weather History Date:

Tuesday, January 21, 2014

  Actual Average Record
Temperature  
Mean Temperature 28 °F -  
Max Temperature 34 °F 37 °F 53 °F (1979)
Min Temperature 23 °F 22 °F 2 °F (1970)
Degree Days  
Heating Degree Days 36    
Moisture  
Dew Point 19 °F    
Average Humidity 75    
Maximum Humidity 93    
Minimum Humidity 43    
Precipitation  
Precipitation 0.01 in - - ()
Sea Level Pressure  
Sea Level Pressure 29.85 in    
Wind  
Wind Speed 18 mph (NNE)    
Max Wind Speed 33 mph    
Max Gust Speed 40 mph    
Visibility 5 miles    
Events Fog , Snow    
Averages and records for this station are not official NWS values.
T = Trace of Precipitation, MM = Missing Value Source: NWS Daily Summary

Daily Weather History Graph

Daily Weather History Graph

Search for Another Location

Airport:

Trip Planner

Search our weather history database for the weather conditions in past years. The results will help you decide how hot, cold, wet, or windy it might be!

Date:

Astronomy

Jan. 21, 2014 Rise Set
Actual Time 7:00 AM EST 4:43 PM EST
Civil Twilight 6:30 AM EST 5:13 PM EST
Nautical Twilight 5:56 AM EST 5:46 PM EST
Astronomical Twilight 5:23 AM EST 6:19 PM EST
Moon 10:16 PM EST (1/21) 9:24 AM EST (1/21)
Length of Visible Light 10h 42m
Length of Day
9h 42m
Waning Gibbous, 75% of the Moon is Illuminated
Jan 21
Waning Gibbous
Jan 24
Last Quarter
Jan 30
New
Feb 6
First Quarter
Feb 14
Full

Hourly Weather History & Observations

Time (EST) Temp. Windchill Dew Point Humidity Pressure Visibility Wind Dir Wind Speed Gust Speed Precip Events Conditions
12:53 AM 34.0 °F 23.8 °F 21.0 °F 59% 29.86 in 10.0 mi NW 16.1 mph 20.7 mph N/A   Mostly Cloudy
1:53 AM 32.0 °F 20.8 °F 16.0 °F 52% 29.89 in 10.0 mi NW 17.3 mph - N/A   Mostly Cloudy
2:53 AM 30.9 °F 21.7 °F 14.0 °F 50% 29.91 in 10.0 mi NNW 11.5 mph - N/A   Overcast
3:53 AM 30.0 °F 19.1 °F 10.0 °F 43% 29.92 in 10.0 mi NNW 15.0 mph 23.0 mph N/A   Overcast
4:53 AM 28.9 °F 21.1 °F 9.0 °F 43% 29.95 in 10.0 mi North 8.1 mph - N/A   Overcast
5:26 AM 26.6 °F 16.2 °F 17.6 °F 69% 29.96 in 10.0 mi North 11.5 mph - N/A   Mostly Cloudy
5:53 AM 26.1 °F 15.0 °F 17.1 °F 69% 29.97 in 10.0 mi North 12.7 mph - N/A   Scattered Clouds
6:53 AM 25.0 °F 14.2 °F 15.1 °F 66% 29.98 in 10.0 mi North 11.5 mph - N/A   Partly Cloudy
7:53 AM 26.1 °F 16.2 °F 14.0 °F 60% 29.99 in 10.0 mi North 10.4 mph - N/A   Partly Cloudy
8:53 AM 26.1 °F 14.5 °F 14.0 °F 60% 29.99 in 10.0 mi NNE 13.8 mph - N/A   Clear
9:53 AM 26.1 °F 14.0 °F 12.9 °F 58% 30.01 in 10.0 mi NNE 15.0 mph - N/A   Clear
10:53 AM 27.0 °F 18.0 °F 12.9 °F 56% 30.02 in 10.0 mi NNE 9.2 mph - N/A   Clear
11:49 AM 26.6 °F 15.2 °F 10.4 °F 51% 29.99 in 10.0 mi NNE 13.8 mph - N/A   Mostly Cloudy
11:53 AM 26.1 °F 15.0 °F 10.0 °F 51% 29.99 in 10.0 mi NNE 12.7 mph - N/A   Mostly Cloudy
12:53 PM 24.1 °F 12.0 °F 10.0 °F 55% 29.97 in 10.0 mi NNE 13.8 mph - N/A   Overcast
1:53 PM 23.0 °F 8.0 °F 12.0 °F 63% 29.91 in 10.0 mi NNE 20.7 mph 27.6 mph N/A   Overcast
2:53 PM 23.0 °F 6.6 °F 12.9 °F 65% 29.86 in 10.0 mi NNE 25.3 mph 32.2 mph N/A   Overcast
3:11 PM 23.0 °F 6.6 °F 15.8 °F 74% 29.85 in 10.0 mi NNE 25.3 mph 33.4 mph N/A   Overcast
3:53 PM 23.0 °F 6.9 °F 16.0 °F 74% 29.84 in 2.0 mi NNE 24.2 mph 32.2 mph 0.00 in Snow Light Snow
4:11 PM 24.8 °F 10.3 °F 17.6 °F 74% 29.86 in 1.0 mi NNE 20.7 mph 32.2 mph 0.00 in Snow Light Snow
4:27 PM 24.8 °F 10.7 °F 19.4 °F 80% 29.87 in 0.2 mi North 19.6 mph 27.6 mph 0.00 in Fog , Snow Heavy Snow
4:30 PM 24.8 °F 10.7 °F 19.4 °F 80% 29.86 in 0.2 mi NNE 19.6 mph 27.6 mph 0.00 in Fog , Snow Heavy Snow
4:53 PM 24.1 °F 9.8 °F 21.0 °F 88% 29.86 in 0.2 mi North 19.6 mph 27.6 mph 0.00 in Fog , Snow Heavy Snow
4:59 PM 24.8 °F 9.6 °F 21.2 °F 86% 29.85 in 0.8 mi North 23.0 mph - 0.00 in Snow Snow
5:53 PM 26.1 °F 14.0 °F 23.0 °F 88% 29.86 in 0.8 mi NNE 15.0 mph - 0.00 in Snow Snow
6:12 PM 26.6 °F 12.7 °F 21.2 °F 80% 29.84 in 1.2 mi NNE 20.7 mph 28.8 mph 0.01 in Snow Snow
6:25 PM 26.6 °F 12.4 °F 23.0 °F 86% 29.84 in 0.8 mi NNE 21.9 mph 27.6 mph 0.01 in Snow Snow
6:44 PM 26.6 °F 12.7 °F 23.0 °F 86% 29.84 in 1.0 mi NNE 20.7 mph 27.6 mph 0.01 in Snow Snow
6:53 PM 26.1 °F 12.3 °F 23.0 °F 88% 29.84 in 0.8 mi NE 19.6 mph 28.8 mph 0.01 in Snow Light Snow
7:04 PM 26.6 °F 13.1 °F 23.0 °F 86% 29.83 in 1.0 mi NNE 19.6 mph 31.1 mph 0.00 in Snow Light Snow
7:53 PM 27.0 °F 12.2 °F 23.0 °F 85% 29.81 in 1.2 mi NNE 24.2 mph 32.2 mph 0.00 in Snow Light Snow
8:00 PM 26.6 °F 10.6 °F 24.8 °F 93% 29.80 in 1.0 mi NNE 28.8 mph 34.5 mph 0.00 in Snow Light Snow
8:20 PM 26.6 °F 12.0 °F 23.0 °F 86% 29.79 in 1.2 mi NNE 23.0 mph 31.1 mph 0.00 in Snow Light Snow
8:40 PM 26.6 °F 13.1 °F 23.0 °F 86% 29.78 in 2.0 mi NNE 19.6 mph 29.9 mph 0.00 in Snow Light Snow
8:44 PM 26.6 °F 12.7 °F 24.8 °F 93% 29.78 in 1.8 mi NNE 20.7 mph - 0.00 in Snow Light Snow
8:53 PM 28.0 °F 14.3 °F 24.1 °F 85% 29.78 in 1.8 mi NNE 21.9 mph 29.9 mph 0.00 in Snow Light Snow
9:08 PM 28.4 °F 13.5 °F 24.8 °F 86% 29.76 in 1.2 mi NNE 26.5 mph 34.5 mph 0.00 in Snow Light Snow
9:42 PM 28.4 °F 13.5 °F 24.8 °F 86% 29.74 in 2.0 mi NNE 26.5 mph 38.0 mph 0.00 in Snow Light Snow
9:53 PM 28.0 °F 13.3 °F 24.1 °F 85% 29.74 in 2.5 mi NNE 25.3 mph 36.8 mph 0.00 in Snow Light Snow
10:04 PM 28.4 °F 13.5 °F 24.8 °F 86% 29.73 in 4.0 mi NNE 26.5 mph 34.5 mph 0.00 in Snow Light Snow
10:15 PM 28.4 °F 13.8 °F 24.8 °F 86% 29.73 in 2.0 mi NNE 25.3 mph 38.0 mph 0.00 in Snow Light Snow
10:38 PM 28.4 °F 14.1 °F 24.8 °F 86% 29.73 in 2.0 mi NNE 24.2 mph 35.7 mph 0.00 in Snow Light Snow
10:53 PM 28.0 °F 13.3 °F 24.1 °F 85% 29.72 in 2.0 mi NNE 25.3 mph 32.2 mph 0.00 in Snow Light Snow
11:01 PM 28.4 °F 12.0 °F 24.8 °F 86% 29.71 in 1.5 mi NNE 33.4 mph 39.1 mph 0.00 in Snow Light Snow
11:13 PM 28.4 °F 13.5 °F 24.8 °F 86% 29.72 in 0.8 mi NNE 26.5 mph 38.0 mph 0.00 in Snow Light Snow
11:27 PM 26.6 °F 10.6 °F 24.8 °F 93% 29.71 in 0.5 mi NNE 28.8 mph 38.0 mph 0.00 in Fog , Snow Snow
11:53 PM 27.0 °F 10.8 °F 24.1 °F 89% 29.69 in 1.0 mi NNE 29.9 mph 40.3 mph 0.00 in Snow Light Snow